This is the latest recevied weather packets stored in our database for station/object EA3ANS-1. If no packets are shown the sender has not sent any weather packets the latest 10 day(s).
| Time | Temp. | Humidity | Pressure | Rain* | Wind** | Luminosity | Snow |
|---|---|---|---|---|---|---|---|
| 1787594856 | 25° C | - | 1009.4 hPa | 0 mm | 2.68 m/s, 298° | - | - |
| 1787594252 | 25.56° C | - | 1009.1 hPa | 0 mm | 4.02 m/s, 280° | - | - |
| 1787593655 | 26.11° C | - | 1008.6 hPa | 0 mm | 2.68 m/s, 1° | - | - |
| 1787593045 | 26.11° C | - | 1008.4 hPa | 0 mm | 2.24 m/s, 270° | - | - |
| 1787592447 | 26.11° C | - | 1008.6 hPa | 0 mm | 3.58 m/s, 245° | - | - |
| 1787591850 | 26.67° C | - | 1008.6 hPa | 0 mm | 3.13 m/s, 198° | - | - |
| 1787591250 | 26.67° C | - | 1008.2 hPa | 0 mm | 0.89 m/s, 252° | - | - |
| 1787590648 | 27.22° C | - | 1008.2 hPa | 0 mm | 4.02 m/s, 181° | - | - |
| 1787590048 | 27.22° C | - | 1008.5 hPa | 0 mm | 3.58 m/s, 194° | - | - |
| 1787589450 | 27.22° C | - | 1008.4 hPa | 0 mm | 4.92 m/s, 208° | - | - |
| 1787588848 | 27.22° C | - | 1008.5 hPa | 0 mm | 3.13 m/s, 248° | - | - |
| 1787588250 | 27.78° C | - | 1008.6 hPa | 0 mm | 2.24 m/s, 253° | - | - |
| 1787587653 | 28.33° C | - | 1008.1 hPa | 0 mm | 2.68 m/s, 200° | - | - |
| 1787587056 | 28.33° C | - | 1008.3 hPa | 0 mm | 4.47 m/s, 172° | - | - |
| 1787586459 | 28.89° C | - | 1007.7 hPa | 0 mm | 3.13 m/s, 228° | - | - |
| 1787585860 | 28.89° C | - | 1008.1 hPa | 0 mm | 2.68 m/s, 226° | - | - |
| 1787585263 | 28.89° C | - | 1008.1 hPa | 0 mm | 3.58 m/s, 217° | - | - |
| 1787584658 | 29.44° C | - | 1007.9 hPa | 0 mm | 4.02 m/s, 226° | - | - |
| 1787584061 | 30° C | - | 1007.7 hPa | 0 mm | 4.02 m/s, 207° | - | - |
| 1787583463 | 30° C | - | 1008 hPa | 0 mm | 3.13 m/s, 188° | - | - |
| 1787582866 | 30° C | - | 1008 hPa | 0 mm | 3.58 m/s, 145° | - | - |
| 1787582269 | 30° C | - | 1008.5 hPa | 0 mm | 2.68 m/s, 148° | - | - |
| 1787581671 | 30° C | - | 1009 hPa | 0 mm | 3.58 m/s, 176° | - | - |
| 1787581074 | 30° C | - | 1009.1 hPa | 0 mm | 4.47 m/s, 141° | - | - |
| 1787580468 | 30° C | - | 1009.4 hPa | 0 mm | 5.81 m/s, 148° | - | - |
* Rain latest hour (hover to see other rain measurements)
** Current wind speed in m/s (hover to see current wind gust speed)